Hourly Data Report for November 26, 2021

FLIN FLON
MANITOBA
Current Station Operator: ECCC - MSC

54°41'00.000" N
101°41'00.000" W
303.90 m
5050919
71954
WFO

Download Data

Hourly Data (November 2021)
Hourly Data Report for November 26, 2021
TIME
LST
Temp Definition
°C
Dew Point Definition
°C
Rel Hum Definition
%
Precip. Amount Definition
mm

Wind Dir Definition
10's deg

Wind Spd Definition
km/h
Visibility Definition
km
Stn Press Definition
kPa
Hmdx Definition


Wind Chill Definition


Weather Definition


00:00 -8.1 -9.9 87 0.0 17 12   97.09   -14 LegendNANA
01:00 -8.0 -9.7 88 0.0 16 13   97.01   -14 LegendNANA
02:00 -8.4 -9.9 89 0.0 15 12   96.92   -14 LegendNANA
03:00 -7.5 -9.2 87 0.0 19 19   96.93   -15 LegendNANA
04:00 -7.7 -9.5 87 0.0 17 15   96.88   -14 LegendNANA
05:00 -7.7 -9.5 87 0.0 18 13   96.84   -13 LegendNANA
06:00 -9.2 -10.6 89 0.0 13 10   96.83   -14 LegendNANA
07:00 -9.4 -10.7 90 0.0 13 8   96.77   -14 LegendNANA
08:00 -8.5 -9.7 91 0.0 16 11   96.74   -14 LegendNANA
09:00 -8.6 -9.9 91 0.0 15 9   96.68   -13 LegendNANA
10:00 -7.8 -9.1 90 0.0 15 10   96.68   -13 LegendNANA
11:00 -7.2 -8.6 89 0.1 16 11   96.62   -12 LegendNANA
12:00 -6.5 -8.1 88 0.0 17 6   96.64   -9 LegendNANA
13:00 -5.8 -8.3 82 0.0 14 8   96.56   -10 LegendNANA
14:00 -5.6 -7.6 86 0.0 20 7   96.60   -9 LegendNANA
15:00 -4.9 -6.9 86 0.0 19 10   96.61   -9 LegendNANA
16:00 -5.9 -7.3 89 0.0 22 5   96.63   -8 LegendNANA
17:00 -7.3 -8.4 92 0.0 0 1   96.67   -8 LegendNANA
18:00 -7.5 -8.3 94 0.0 21 6   96.69   -11 LegendNANA
19:00 -6.9 -7.8 93 0.0 21 8   96.70   -11 LegendNANA
20:00 -6.9 -8.1 91 0.0 22 11   96.70   -12 LegendNANA
21:00 -6.9 -8.3 90 0.0 23 6   96.72   -10 LegendNANA
22:00 -9.1 -9.7 95 0.0 23 5   96.75   -12 LegendNANA
23:00 -5.1 -6.4 91 0.0 25 7   96.79   -8 LegendNANA

Notes on Data Quality.

Legend

  • E = Estimated
  • M = Missing
  • NA = Not Available*
  • [empty] = Indicates an unobserved value
Date modified: